Starlink 33742

operational
NORAD ID: 63366 Int'l Des: 2025-063 Owner: SPXS Country: US Constellation: starlink
LEOCIRCULAR

Über Starlink 33742

Beschreibung wird geladen...

Live-Position

3D-Globus wird geladen...

Nächste Überflüge

Höhenverlauf

Altitude vs Time

uPlot chart will show altitude changes over time

Zweizeiliger Elementsatz

1 63366U 25063D 25258.42597250 .00124927 00000-0 30720-2 0 9995
2 63366 53.1581 147.4119 0001346 81.5323 278.5834 15.39721415 27860
Epoch: 15. Sept. 2025 • Age: 17 hours

Aktueller Status

Höhe 446.2 km
Geschwindigkeit 7.65 km/s
Subsatellitenpunkt 12.49°N, 106.8°E
Startdatum 26. März 2025
Alter 0.4 years
Typ internet

Technische Details

Klassifizierung Payload
Masse 575.00 kg
Trockenmasse 530.00 kg
Gesamtmasse 575.00 kg
Länge 0.30 m
Durchmesser 4.10 m
Spannweite 29.00 m
Form Box + pan
Hersteller SPXS
Bus-Typ Starlink V2MO
Phasenstatus In Orbit
Besitzer/Staat SPXS/US

Große Konstellationen

Loading constellations...